Regional Weather Roundup
Issued by NWS

Home | Current Version | Previous Version | Graphics & Text | Print | Product List | Glossary Off
Versions: 1 2 3 4 5 6 7 8 9 10 11 12 13 14 15 16 17 18 19 20 21 22 23 24 25 26 27 28 29 30 31 32 33 34 35 36 37 38 39 40 41 42 43 44 45 46 47 48 49 50

000
ASUS43 KDMX 292007
RWRIA

WEATHER ROUNDUP FOR IOWA
NATIONAL WEATHER SERVICE DES MOINES IA
300 PM CDT TUE JUL 29 2014

NOTE: "FAIR" INDICATES FEW OR NO CLOUDS BELOW 12,000 FEET WITH NO
SIGNIFICANT WEATHER AND/OR OBSTRUCTIONS TO VISIBILITY.

* - THESE STATIONS ARE NOT NWS STATIONS...THUS NOT UNDER NWS
QUALITY CONTROL.  THEY ALSO DO NOT REPORT WEATHER SUCH
AS PRECIPITATION OR FOG.

IAZ001>003-012>014-020>022-031>034-043>046-292100-
   NORTHWEST IOWA

CITY           SKY/WX    TMP DP  RH WIND       PRES   REMARKS
CARROLL *      PTSUNNY   72  54  53 NW6       30.17F
CHEROKEE *     PTSUNNY   73  54  49 NW8       30.17F
DENISON *      PTSUNNY   73  54  49 NW10G16   30.16F
LE MARS *      PTSUNNY   72  54  53 NW5G12    30.19F
ORANGE CITY *  MOSUNNY   73  52  46 NW5       30.19S
SHELDON *      CLOUDY    72  54  53 NW6       30.18S
SIOUX CITY     PTSUNNY   76  54  46 N8        30.18F
SPENCER        MOSUNNY   73  53  49 NW9       30.17F
STORM LAKE *   MOSUNNY   73  57  56 N7        30.18F
$$

IAZ055>058-069>071-079>083-090>094-292100-
   SOUTHWEST IOWA

CITY           SKY/WX    TMP DP  RH WIND       PRES   REMARKS
ATLANTIC *     MOSUNNY   75  55  50 N9G16     30.16F
AUDUBON *      PTSUNNY   75  57  53 NW7       30.19S
CLARINDA *     PTSUNNY   77  59  53 NE6G13    30.17F
COUNCIL BLFS * MOSUNNY   75  57  53 N10G23    30.16F
CRESTON *      MOSUNNY   75  55  50 NW9G17    30.17F
HARLAN  *      PTSUNNY   73  57  56 N7        30.21F
LAMONI         CLOUDY    77  57  50 N7        30.16F
RED OAK *      PTSUNNY   75  55  50 VRB5      30.17F
SHENANDOAH *   MOSUNNY   77  57  50 VRB6G12   30.17F
$$

IAZ047>049-059>061-072>074-084-292100-
   CENTRAL IOWA

CITY           SKY/WX    TMP DP  RH WIND       PRES   REMARKS
AMES           MOSUNNY   76  55  48 NW10      30.14F
ANKENY *       MOSUNNY   77  55  47 N10       30.14F
CHARITON *     SUNNY     77  55  47 W12       30.15F
DES MOINES     MOSUNNY   79  53  40 W12       30.14F
GRINNELL*      SUNNY     75  57  53 W12       30.14S
KNOXVILLE *    SUNNY     77  54  44 VRB6G13   30.13F
MARSHALLTOWN   MOSUNNY   76  58  53 W8        30.13S
PELLA *        MOSUNNY   77  57  50 W8        30.14F
PERRY *          N/A     75  55  50 NW6       30.16F
$$

IAZ004>006-015-016-023>025-035-036-292100-
   NORTH CENTRAL IOWA

CITY           SKY/WX    TMP DP  RH WIND       PRES   REMARKS
ALGONA *       PTSUNNY   75  55  50 N6        30.16F
CLARION *      MOSUNNY   75  55  50 NW9       30.15S
ESTHERVILLE    MOSUNNY   73  54  51 NW9       30.16F
FORT DODGE *   PTSUNNY   73  55  53 N5        30.16F
MASON CITY     SUNNY     77  55  46 NW12      30.14F
FOREST CITY *  MOSUNNY   75  54  46 NE15      30.14F
IOWA FALLS *   PTSUNNY   77  57  50 NW9       30.15S
$$

IAZ007>011-017>019-026>030-037>042-050>054-066-292100-
   NORTHEAST IOWA

CITY           SKY/WX    TMP DP  RH WIND       PRES   REMARKS
CEDAR RAPIDS   MOSUNNY   76  57  51 NW9       30.10F
CHARLES CITY * SUNNY     75  57  53 NW10G16   30.12F
CLINTON *      PTSUNNY   77  57  50 W12       30.10F
DECORAH *      MOSUNNY   75  55  50 NW9       30.08F
DUBUQUE        MOSUNNY   77  57  50 NW13      30.09S
MONTICELLO *   MOSUNNY   77  59  53 W9G16     30.08F
OELWEIN *      MOSUNNY   77  57  50 NW10      30.11S
WATERLOO       MOSUNNY   78  56  46 NW13G21   30.10F
$$

IAZ064-065-067-068-078-292100-
   EAST CENTRAL IOWA

CITY           SKY/WX    TMP DP  RH WIND       PRES   REMARKS
DAVENPORT      MOSUNNY   77  57  50 W12G20    30.09F
IOWA CITY      MOSUNNY   79  57  46 NW13      30.11F HX  80
MT. PLEASANT * MOSUNNY   75  54  46 NW9       30.12F
MUSCATINE *    MOSUNNY   81  55  41 NW14      30.10S HX  80
QUAD CITIES      N/A     79  56  45 W14G20    30.08F HX  80
$$

IAZ062-063-075>077-085>089-095>099-292100-
   SOUTHEAST IOWA

CITY           SKY/WX    TMP DP  RH WIND       PRES   REMARKS
BURLINGTON     MOSUNNY   78  58  49 W7        30.11F
FAIRFIELD *    PTSUNNY   73  59  60 VRB7      30.13S
FORT MADISON * MOSUNNY   79  57  47 W6        30.13S HX  80
KEOKUK *       MOSUNNY   77  59  53 W7        30.12S
OSKALOOSA *    PTSUNNY   77  59  53 NW9       30.13F
CENTERVILLE *  SUNNY     77  57  50 NW8       30.16F
OTTUMWA        MOSUNNY   77  58  51 NW13      30.13R
WASHINGTON *   MOSUNNY  N/A N/A N/A NW8G15    30.12S
$$

ABBREVIATIONS USED IN REMARKS
   TC - TEMPERATURES IN CELSIUS
  WCI - WIND CHILL INDEX
   HX - HEAT INDEX
  VSB - VISIBILITY
$$




USA.gov is the U.S. government's official web portal to all federal, state and local government web resources and services.